Regional Weather Roundup
Issued by NWS Burlington, VT

Home | Current Version | Previous Version | Text Only | Print | Product List | Glossary On
Versions: 1 2 3 4 5 6 7 8 9 10 11 12 13 14 15 16 17 18 19 20 21 22 23 24 25 26 27 28 29 30 31 32 33 34 35 36 37 38 39 40 41 42 43 44 45 46 47 48 49 50
000
ASUS41 KBTV 290930
RWRBTV
VERMONT REGIONAL WEATHER ROUNDUP
NATIONAL WEATHER SERVICE BURLINGTON VT
400 AM EST MON DEC 29 2014

NOTE: "FAIR" INDICATES FEW OR NO CLOUDS BELOW 12,000 FEET WITH NO
SIGNIFICANT WEATHER AND/OR OBSTRUCTIONS TO VISIBILITY.

* THESE REPORTS ARE NOT UNDER NWS QUALITY CONTROL AND/OR DO NOT
  REPORT WEATHER SUCH AS PRECIPITATION AND FOG.

VTZ001>019-291000-
_____VERMONT_____


CITY           SKY/WX    TMP DP  RH WIND       PRES   REMARKS
BURLINGTON     CLOUDY    35  18  49 W7        30.02S
MONTPELIER     CLOUDY    31  16  54 VRB5      30.01R
MORRISVILLE    CLOUDY    32  16  51 NW3       30.00R
ST. JOHNSBURY*   N/A     28  21  75 MISG      29.97S
LYNDONVILLE*   CLOUDY    30  12  47 SW6       29.97S
MIDDLEBURY*    CLOUDY    30  24  75 CALM      30.02S
RUTLAND*       CLOUDY    32  19  59 W6        30.02F
SPRINGFIELD    PTSUNNY   27  21  78 CALM      30.03R
HIGHGATE*      CLOUDY    32  19  57 W6        30.02S
NEWPORT*       CLOUDY    29  15  56 W13G18    29.97S WCI  18
BENNINGTON     MOSUNNY   32  24  72 SW8       30.05S
SUTTON*          N/A     27 N/A N/A MISG        N/A
GALLUP MILLS*    N/A     28 N/A N/A MISG        N/A
UNION VILLAGE*   N/A     27 N/A N/A MISG        N/A
MT. MANSFIELD*   N/A     18 N/A N/A CALM        N/A

_____LAKE CHAMPLAIN_____


CITY           SKY/WX    TMP DP  RH WIND       PRES   REMARKS
BURTON ISLAND*   N/A     36  23  60 W12         N/A
COLCHESTER RF*   N/A     36  23  60 W14         N/A

$$

NYZ007-026>031-035-052-083-291000-
_____NORTHERN NEW YORK_____


CITY           SKY/WX    TMP DP  RH WIND       PRES   REMARKS
PLATTSBURGH    CLOUDY    33  20  58 CALM      30.02S
SARANAC LAKE   CLOUDY    27  19  72 W9G17     29.97R
MASSENA        CLOUDY    27  16  63 NW17G25   30.12R WCI  14
POTSDAM*       CLOUDY    28  21  74 NW13      30.10R WCI  18
STARK FALLS*     N/A     28 N/A N/A W8          N/A
WATERTOWN      CLOUDY    34  19  54 W13G21    30.12R
FT DRUM        CLOUDY    29  19  66 W8        30.09R
ALBANY         PTSUNNY   34  24  67 NW6       30.11R
GLENS FALLS    MOSUNNY   31  26  82 SW5       30.07S

$$
NHZ002-005-011-291000-
_____NEW HAMPSHIRE_____


CITY           SKY/WX    TMP DP  RH WIND       PRES   REMARKS
LEBANON        CLOUDY    30  20  66 VRB3      30.01S
KEENE          PTSUNNY   30  25  80 CALM      30.04S
MT WASHINGTON  FOG        5   5 100 NW66G72     N/A  VSB 0   WCI -27
PLYMOUTH       FAIR      27  26  94 CALM      30.00S
WHITEFIELD     PTSUNNY   27  17  66 SW5       29.96S

$$

_____REGIONAL QUEBEC LOCATIONS_____


CITY           SKY/WX    TMP DP  RH WIND       PRES   REMARKS
MONTREAL       MOSUNNY   27   9  46 W22G35    30.03  WCI  12
QUEBEC CITY    MOSUNNY   23  18  80 W7        29.90S
SHERBROOKE     SUNNY     27  19  74 SW7G17    29.93S

_____REGIONAL ONTARIO LOCATIONS_____


CITY           SKY/WX    TMP DP  RH WIND       PRES   REMARKS
OTTAWA         MOSUNNY   21  10  63 NW16G24   30.12R WCI   7

______KEY______
VSB  - VISIBILITY IN MILES
WCI  - WIND CHILL INDEX
HX   - HEAT INDEX
$$
NNNN



USA.gov is the U.S. government's official web portal to all federal, state and local government web resources and services.